STARLINK-36452, 67405

Orbit data source: Space-Track

STARLINK-36452, 67405 is a payload satellite owned by SpaceX/Seattle (US) in LEO that was launched on Mon, 12 Jan 2026 UTC via an FALCON 9 launch vehicle from the Air Force Eastern Test Range (AFETR). Payload-class satellites include a variety of spacecraft equipped with specific instruments for various scientific and technological missions. These include communications satellites like Starlink; space stations such as the ISS; scientific satellites like the Hubble; Earth observation satellites from companies like Planet Labs, Umbra, and HawkEye 360; GPS; miniature CubeSats for education and research; and military/defense satellites.

Loading next visibility...
Identifier
67405, 2026-005B
Orbit
LEO
Country
Flag of USUS
Related business
Manufacturer
SpaceX/Seattle
Mission
Operational Commercial Communications
Bus & Motor
STARLINK V2MO, Unknown motor
Mass
575 kg wet, ~530 kg dry
Launch date (UTC)
2026-01-12 (5 months ago)
Launch vehicle
FALCON 9
Launch site
Air Force Eastern Test Range (AFETR)
Object type
Payload
Rocket body
Debris
Shape & HBR
Box + 2 Pan, 17.7 m
Radar Cross Section
36.964 m², Large (>1 m²)

Expand to show TLE details & history
Last TLE update: 14 hours ago

TLE from 14 hours ago
0 STARLINK-36452
1 67405U 26005B   26171.30067569  .00012982  00000-0  48024-3 0  9991
2 67405  43.0056  18.1354 0003037 271.5303  88.5201 15.27592644 24395
Epoch: 2026-06-20T07:12Z
TLE epoch observation values (Epoch: 2026-06-20T07:12:58.379Z)
Latitude
-0.00001°
Longitude
1.37487°
Altitude
482.734 km
Speed
7.626 km/s
True Right ascension
01h 12m 32s
True Declination
0° 00' 00"
Sunlit
Object was in daylight at epoch
Visualization orbit readout
Latitude
Unknown
Longitude
Unknown
Altitude
Unknown
Speed
Unknown
Apparent Right ascension
Unknown
Apparent Declination
Unknown
Sunlit
N/A
Visualization observer readout
Local Sidereal Time
08:32:49
Azimuth
Unknown
Elevation
Unknown
Doppler factor
Unknown
Orbital elements
Apogee altitude
487.04 km
Perigee altitude
482.871 km
Semi-major axis
6,863.092 km
Eccentricity
0.0003
Inclination
43.0056°
RAAN
18.1354°
Arg. of periapsis
271.5303°
True anomaly
88.55489°
Mean anomaly
88.5201°
Eccentric anomaly
88.5375°
Mean motion
3.81736 °/min
Orbital period
94.31 mins
BSTAR
0.00048024
Loading maneuver chart data...
Computing Atmospheric mass density...
Loading historical data...
Loading historical data...
Loading historical data...
Loading historical data...
Loading historical data...
Loading historical data...
Loading historical data...

Documentation

Showing up to 5 results
|